KF0ZH Weather Reports


Display with metric or nautical units.
time (UTC)temp
F
wind
direction
speed
MPH
gust
MPH
rain 1hr
in
rain 24hr
in
rain mn
in
humidity
%
barometer
mb
20260507035159 42 317 0.0 0.0 0.00 0.00 0.00 71 1013.8
20260507034156 42 317 0.0 0.0 0.00 0.00 0.00 71 1013.8
20260507033201 42 317 0.0 0.0 0.00 0.00 0.00 70 1013.8
20260507032657 42 317 0.0 0.0 0.00 0.00 0.00 70 1013.9
20260507032157 42 317 0.0 0.0 0.00 0.00 0.00 69 1013.8
20260507031157 42 317 0.0 0.0 0.00 0.00 0.00 69 1013.9
20260507030200 42 317 0.0 0.0 0.00 0.00 0.00 69 1013.9
20260507025657 42 317 0.0 0.0 0.00 0.00 0.00 69 1013.9
20260507025201 42 317 0.0 0.0 0.00 0.00 0.00 69 1013.9
20260507024658 42 317 0.0 0.0 0.00 0.00 0.00 68 1013.9
20260507024158 42 317 0.0 0.0 0.00 0.00 0.00 67 1013.9
20260507023657 42 317 0.0 0.0 0.00 0.00 0.00 67 1013.9
20260507023157 42 317 0.0 0.0 0.00 0.00 0.00 66 1013.9
20260507022657 42 317 0.0 0.0 0.00 0.00 0.00 66 1013.9
20260507022157 42 317 0.0 0.0 0.00 0.00 0.00 65 1013.9
20260507021657 42 317 0.0 0.0 0.00 0.00 0.00 65 1013.9
20260507021157 42 317 0.0 0.0 0.00 0.00 0.00 65 1014.0
20260507020657 43 317 0.0 0.0 0.00 0.00 0.00 64 1014.0
20260507015657 43 317 0.0 0.0 0.00 0.00 0.00 63 1013.9
20260507014200 43 317 0.0 0.0 0.00 0.00 0.00 63 1013.8
20260507013659 44 317 0.0 0.0 0.00 0.00 0.00 62 1013.7
20260507012657 44 317 0.0 0.0 0.00 0.00 0.00 62 1013.7
20260507012200 44 317 0.0 0.0 0.00 0.00 0.00 61 1013.8
20260507011157 44 329 0.0 0.0 0.00 0.00 0.00 61 1013.8
20260507005656 45 306 6.0 11.0 0.00 0.00 0.00 60 1013.8
20260507005157 45 326 0.0 0.0 0.00 0.00 0.00 60 1013.8
20260507004657 45 326 0.0 0.0 0.00 0.00 0.00 59 1013.7
20260507004158 45 326 0.0 6.0 0.00 0.00 0.00 59 1013.9
20260507003659 46 236 0.0 8.0 0.00 0.00 0.00 59 1013.9
20260507003157 46 282 0.0 0.0 0.00 0.00 0.00 58 1013.9
20260507002658 46 316 0.0 7.0 0.00 0.00 0.00 58 1013.8
20260507002158 46 230 0.0 7.0 0.00 0.00 0.00 57 1013.8
20260507001701 46 322 0.0 4.0 0.00 0.00 0.00 58 1013.9
20260507001156 46 307 0.0 0.0 0.00 0.00 0.00 58 1013.9
20260507000657 46 336 6.0 13.0 0.00 0.00 0.00 58 1013.9
20260507000158 46 254 0.0 9.0 0.00 0.00 0.00 58 1013.9
20260506235159 46 315 5.0 10.0 0.00 0.00 0.00 59 1014.0
20260506234657 46 270 0.0 6.0 0.00 0.00 0.00 59 1014.0
20260506234156 46 288 6.0 7.0 0.00 0.00 0.00 59 1014.0
20260506233657 46 307 8.0 11.0 0.00 0.00 0.00 59 1014.1
20260506233157 46 296 0.0 9.0 0.00 0.00 0.00 59 1014.1
20260506232657 46 312 0.0 8.0 0.00 0.00 0.00 59 1014.1
20260506232158 46 279 4.0 5.0 0.00 0.00 0.00 59 1014.2
20260506231657 46 317 6.0 14.0 0.00 0.00 0.00 58 1014.2
20260506231204 46 316 8.0 11.0 0.00 0.00 0.00 58 1014.3
20260506230657 46 307 4.0 8.0 0.00 0.00 0.00 59 1014.4
20260506230158 46 334 0.0 5.0 0.00 0.00 0.00 59 1014.4
20260506225656 46 300 0.0 10.0 0.00 0.00 0.00 58 1014.4
20260506225157 46 300 3.0 10.0 0.00 0.00 0.00 59 1014.5
20260506224656 46 299 3.0 9.0 0.00 0.00 0.00 59 1014.5
20260506224158 46 315 7.0 14.0 0.00 0.00 0.00 59 1014.5
20260506223657 46 286 0.0 11.0 0.00 0.00 0.00 58 1014.5
20260506222657 46 319 0.0 10.0 0.00 0.00 0.00 60 1014.5
20260506222159 46 274 14.0 14.0 0.00 0.00 0.00 59 1014.5
20260506221158 46 329 4.0 12.0 0.00 0.00 0.00 59 1014.6
20260506220700 46 324 5.0 9.0 0.00 0.00 0.00 59 1014.6
20260506220158 46 253 0.0 11.0 0.00 0.00 0.00 59 1014.6
20260506215657 47 2 5.0 10.0 0.00 0.00 0.00 58 1014.7
20260506215158 47 358 0.0 5.0 0.00 0.00 0.00 59 1014.7
20260506214156 46 309 2.0 6.0 0.00 0.00 0.00 61 1014.8
20260506213158 46 288 5.0 10.0 0.00 0.00 0.00 60 1015.0
20260506212657 46 284 4.0 9.0 0.00 0.00 0.00 60 1015.1
20260506212200 46 2 2.0 7.0 0.00 0.00 0.00 60 1015.1
20260506211657 46 234 7.0 10.0 0.00 0.00 0.00 60 1015.1
20260506211158 46 275 3.0 5.0 0.00 0.00 0.00 60 1015.2
20260506210658 46 275 6.0 12.0 0.00 0.00 0.00 61 1015.2
20260506210156 45 307 0.0 7.0 0.00 0.00 0.00 61 1015.2
20260506205656 45 274 5.0 8.0 0.00 0.00 0.00 61 1015.4
20260506205157 45 257 1.0 10.0 0.00 0.00 0.00 61 1015.4
20260506204656 45 306 0.0 7.0 0.00 0.00 0.00 62 1015.4
20260506203657 45 160 0.0 9.0 0.00 0.00 0.00 63 1015.5
20260506203201 45 261 0.0 6.0 0.00 0.00 0.00 63 1015.6
20260506202657 44 285 6.0 7.0 0.00 0.00 0.00 64 1015.6
20260506202157 44 296 4.0 10.0 0.00 0.00 0.00 63 1015.7
20260506201656 44 203 0.0 9.0 0.00 0.00 0.00 63 1015.6
20260506201159 45 327 0.0 10.0 0.00 0.00 0.00 63 1015.5
20260506200703 45 337 4.0 8.0 0.00 0.00 0.00 63 1015.7
20260506200203 44 316 0.0 4.0 0.00 0.00 0.00 65 1015.7
20260506195657 44 184 0.0 12.0 0.00 0.00 0.00 65 1015.7
20260506195243 44 246 5.0 5.0 0.00 0.00 0.00 66 1015.7
20260506195207 44 246 5.0 5.0 0.00 0.00 0.00 66 1015.7
20260506194657 44 243 5.0 9.0 0.00 0.00 0.00 66 1015.7
20260506194158 43 240 3.0 9.0 0.00 0.00 0.00 65 1015.8
20260506193156 43 352 8.0 11.0 0.00 0.00 0.00 66 1015.7
20260506192656 44 288 0.0 12.0 0.00 0.00 0.00 65 1015.8
20260506192157 44 270 3.0 7.0 0.00 0.00 0.00 65 1015.8
20260506191656 44 247 6.0 10.0 0.00 0.00 0.00 64 1015.8
20260506191157 44 295 5.0 8.0 0.00 0.00 0.00 64 1015.8
20260506190656 43 295 0.0 9.0 0.00 0.00 0.00 66 1015.7
20260506190157 43 241 6.0 7.0 0.00 0.00 0.00 66 1015.7
20260506185159 43 326 5.0 5.0 0.00 0.00 0.00 67 1015.8
20260506184656 43 285 0.0 9.0 0.00 0.00 0.00 67 1015.9
20260506184158 42 286 3.0 12.0 0.00 0.00 0.00 66 1015.9
20260506183657 43 306 11.0 15.0 0.00 0.00 0.00 66 1015.9
20260506182658 43 284 4.0 13.0 0.00 0.00 0.00 64 1016.0
20260506182306 43 298 1.0 8.0 0.00 0.00 0.00 66 1016.0
20260506182159 43 298 1.0 8.0 0.00 0.00 0.00 66 1016.0
20260506181657 42 267 0.0 10.0 0.00 0.00 0.00 66 1016.0
20260506181158 42 295 7.0 12.0 0.00 0.00 0.00 65 1016.1
20260506180657 42 295 11.0 11.0 0.00 0.00 0.00 65 1016.3
20260506180157 42 267 9.0 13.0 0.00 0.00 0.00 66 1016.3
20260506175657 42 11 0.0 13.0 0.00 0.00 0.00 67 1016.3
20260506175158 42 309 6.0 7.0 0.00 0.00 0.00 66 1016.3
20260506174657 42 267 6.0 13.0 0.00 0.00 0.00 65 1016.5
20260506174159 43 312 0.0 8.0 0.00 0.00 0.00 66 1016.5
20260506173657 42 306 7.0 7.0 0.00 0.00 0.00 66 1016.4
20260506172657 42 305 3.0 7.0 0.00 0.00 0.00 66 1016.6
20260506172200 42 300 7.0 9.0 0.00 0.00 0.00 65 1016.6
20260506171657 42 358 2.0 7.0 0.00 0.00 0.00 66 1016.6
20260506171157 42 281 0.0 9.0 0.00 0.00 0.00 66 1016.7
20260506170656 42 268 0.0 9.0 0.00 0.00 0.00 67 1016.7
20260506165656 41 351 0.0 5.0 0.00 0.00 0.00 67 1016.8
20260506165157 41 326 5.0 11.0 0.00 0.00 0.00 66 1016.9
20260506164656 41 336 0.0 11.0 0.00 0.00 0.00 67 1016.9
20260506163656 41 239 0.0 14.0 0.00 0.00 0.00 67 1016.8
20260506163156 41 324 0.0 6.0 0.00 0.00 0.00 67 1016.9
20260506162659 41 329 3.0 10.0 0.00 0.00 0.00 67 1016.9
20260506162157 40 306 0.0 10.0 0.00 0.00 0.00 68 1016.8
20260506161657 40 275 3.0 8.0 0.00 0.00 0.00 67 1016.9
20260506161157 41 296 7.0 9.0 0.00 0.00 0.00 66 1016.9
20260506160658 41 289 0.0 8.0 0.00 0.00 0.00 67 1016.8
20260506160156 41 292 6.0 6.0 0.00 0.00 0.00 67 1016.8
20260506155656 40 307 0.0 11.0 0.00 0.00 0.00 67 1016.9
20260506154657 40 258 0.0 9.0 0.00 0.00 0.00 67 1016.7
20260506154157 40 7 0.0 10.0 0.00 0.00 0.00 67 1016.7
20260506153657 40 271 5.0 9.0 0.00 0.00 0.00 67 1016.7
20260506153156 40 261 0.0 11.0 0.00 0.00 0.00 67 1016.6
20260506152656 40 293 0.0 0.0 0.00 0.00 0.00 69 1016.6
20260506152157 40 260 4.0 7.0 0.00 0.00 0.00 69 1016.6
20260506151656 40 282 3.0 8.0 0.00 0.00 0.00 69 1016.6
20260506150656 40 307 0.0 5.0 0.00 0.00 0.00 70 1016.6
20260506150157 40 289 0.0 2.0 0.00 0.00 0.00 70 1016.6
20260506145657 39 289 0.0 4.0 0.00 0.00 0.00 70 1016.7
20260506145159 39 336 0.0 9.0 0.00 0.00 0.00 70 1016.7
20260506144656 39 338 0.0 0.0 0.00 0.00 0.00 71 1016.7
20260506143656 39 288 0.0 2.0 0.00 0.00 0.00 70 1016.7
20260506143156 39 270 8.0 9.0 0.00 0.00 0.00 71 1016.6
20260506142656 39 341 0.0 7.0 0.00 0.00 0.00 71 1016.6
20260506142157 39 295 0.0 0.0 0.00 0.00 0.00 71 1016.6
20260506141657 39 337 3.0 7.0 0.00 0.00 0.00 71 1016.7
20260506140703 38 358 0.0 5.0 0.00 0.00 0.00 71 1016.6
20260506135657 38 313 0.0 7.0 0.00 0.00 0.00 70 1016.6
20260506135157 38 298 3.0 7.0 0.00 0.00 0.00 71 1016.5
20260506134656 38 279 0.0 11.0 0.00 0.00 0.00 70 1016.5
20260506133656 38 278 0.0 5.0 0.00 0.00 0.00 71 1016.4
20260506133156 38 277 0.0 0.0 0.00 0.00 0.00 71 1016.4
20260506132656 38 337 0.0 9.0 0.00 0.00 0.00 71 1016.4
20260506132157 38 316 0.0 6.0 0.00 0.00 0.00 71 1016.4
20260506131657 38 307 6.0 7.0 0.00 0.00 0.00 72 1016.3
20260506131158 38 322 0.0 7.0 0.00 0.00 0.00 72 1016.2
20260506130657 38 315 0.0 10.0 0.00 0.00 0.00 72 1016.1
20260506130157 38 329 5.0 9.0 0.00 0.00 0.00 73 1016.1
20260506125657 38 347 0.0 11.0 0.00 0.00 0.00 77 1016.0
20260506125204 38 285 0.0 3.0 0.00 0.00 0.00 79 1015.9
20260506124700 37 322 0.0 4.0 0.00 0.00 0.00 80 1015.9
20260506123656 37 247 0.0 0.0 0.00 0.00 0.00 83 1015.8
20260506123156 36 188 0.0 0.0 0.00 0.00 0.00 84 1015.8
20260506122656 36 261 0.0 0.0 0.00 0.00 0.00 85 1015.7
20260506122306 36 261 0.0 0.0 0.00 0.00 0.00 86 1015.6
20260506122157 36 261 0.0 0.0 0.00 0.00 0.00 86 1015.6
20260506120657 35 219 0.0 0.0 0.00 0.00 0.00 87 1015.3
20260506120158 34 292 0.0 0.0 0.00 0.00 0.00 88 1015.3
20260506115657 33 292 0.0 0.0 0.00 0.00 0.00 89 1015.2
20260506115204 33 299 0.0 0.0 0.00 0.00 0.00 90 1015.1
20260506114156 32 299 0.0 0.0 0.00 0.00 0.00 91 1014.8
20260506113657 32 299 0.0 0.0 0.00 0.00 0.00 91 1014.8
20260506113156 32 299 0.0 0.0 0.00 0.00 0.00 91 1014.7
20260506112656 31 299 0.0 0.0 0.00 0.00 0.00 91 1014.6
20260506112156 31 299 0.0 0.0 0.00 0.00 0.00 91 1014.6
20260506110656 31 299 0.0 0.0 0.00 0.00 0.00 90 1014.4
20260506105656 31 299 0.0 0.0 0.00 0.00 0.00 90 1014.6
20260506105156 31 299 0.0 0.0 0.00 0.00 0.00 90 1014.7
20260506104656 31 299 0.0 0.0 0.00 0.00 0.00 91 1014.7
20260506104156 31 299 0.0 0.0 0.00 0.00 0.00 91 1014.7
20260506103656 31 299 0.0 0.0 0.00 0.00 0.00 91 1014.7
20260506102657 31 299 0.0 0.0 0.00 0.00 0.00 91 1014.6
20260506102158 31 299 0.0 0.0 0.00 0.00 0.00 90 1014.5
20260506101656 31 299 0.0 0.0 0.00 0.00 0.00 90 1014.5
20260506101156 32 299 0.0 0.0 0.00 0.00 0.00 90 1014.3
20260506100656 31 299 0.0 0.0 0.00 0.00 0.00 90 1014.3
20260506100156 31 299 0.0 0.0 0.00 0.00 0.00 89 1014.2
20260506095656 31 299 0.0 0.0 0.00 0.00 0.00 88 1014.2
20260506095156 31 299 0.0 0.0 0.00 0.00 0.00 88 1014.2
20260506094656 31 299 0.0 0.0 0.00 0.00 0.00 88 1014.2
20260506094156 31 299 0.0 0.0 0.00 0.00 0.00 88 1014.1
20260506093656 32 299 0.0 0.0 0.00 0.00 0.00 87 1014.1
20260506093156 31 299 0.0 0.0 0.00 0.00 0.00 87 1014.1
20260506092656 32 299 0.0 0.0 0.00 0.00 0.00 86 1014.1
20260506092250 31 299 0.0 0.0 0.00 0.00 0.00 85 1014.0
20260506092203 31 299 0.0 0.0 0.00 0.00 0.00 85 1014.0
20260506091656 32 299 0.0 0.0 0.00 0.00 0.00 85 1014.1
20260506091156 32 299 0.0 0.0 0.00 0.00 0.00 84 1014.1
20260506090656 33 299 0.0 0.0 0.00 0.00 0.00 84 1014.1
20260506090156 33 299 0.0 0.0 0.00 0.00 0.00 84 1014.2
20260506085656 32 299 0.0 0.0 0.00 0.00 0.00 83 1014.1
20260506085156 33 299 0.0 0.0 0.00 0.00 0.00 83 1014.0
20260506084656 33 299 0.0 0.0 0.00 0.00 0.00 82 1013.9
20260506084156 33 299 0.0 0.0 0.00 0.00 0.00 81 1013.7
20260506083656 33 299 0.0 0.0 0.00 0.00 0.00 80 1013.6
20260506083159 34 299 0.0 0.0 0.00 0.00 0.00 79 1013.6
20260506082656 34 299 0.0 0.0 0.00 0.00 0.00 79 1013.5
20260506082203 34 299 0.0 0.0 0.00 0.00 0.00 78 1013.6
20260506081656 34 299 0.0 0.0 0.00 0.00 0.00 78 1013.6
20260506081156 34 299 0.0 0.0 0.00 0.00 0.00 77 1013.7
20260506080656 35 299 0.0 0.0 0.00 0.00 0.00 76 1013.8
20260506073157 37 299 0.0 0.0 0.00 0.00 0.00 72 1013.4
20260506072656 38 299 0.0 0.0 0.00 0.00 0.00 72 1013.3
20260506072203 38 299 0.0 0.0 0.00 0.00 0.00 72 1013.2
20260506071656 38 299 3.0 8.0 0.00 0.00 0.00 72 1013.2
20260506071156 38 341 0.0 0.0 0.00 0.00 0.00 72 1013.2
20260506070656 38 341 0.0 3.0 0.00 0.00 0.00 71 1013.2
20260506070156 38 323 0.0 0.0 0.00 0.00 0.00 71 1013.3
20260506062156 39 289 0.0 0.0 0.00 0.00 0.00 70 1013.3
20260506061656 39 358 0.0 0.0 0.00 0.00 0.00 70 1013.2
20260506061156 39 333 0.0 3.0 0.00 0.00 0.00 70 1013.2
20260506060656 39 324 0.0 6.0 0.00 0.00 0.00 69 1013.2
20260506060158 39 340 4.0 9.0 0.00 0.00 0.00 69 1013.2
20260506051157 40 288 0.0 3.0 0.00 0.00 0.00 68 1012.7
20260506050659 40 275 0.0 0.0 0.00 0.00 0.00 68 1012.6
20260506050156 41 272 5.0 5.0 0.00 0.00 0.00 68 1012.5
20260506044656 41 289 0.0 0.0 0.00 0.00 0.00 67 1012.4
20260506044156 41 289 0.0 0.0 0.00 0.00 0.00 67 1012.4
20260506043656 41 289 4.0 5.0 0.00 0.00 0.00 66 1012.4
20260506043156 41 324 0.0 8.0 0.00 0.00 0.00 66 1012.4
20260506042655 41 354 4.0 9.0 0.00 0.00 0.00 66 1012.4
20260506041655 42 326 5.0 12.0 0.00 0.00 0.00 66 1012.3
20260506041155 42 326 0.0 5.0 0.00 0.00 0.00 67 1012.3
20260506040656 42 331 0.0 0.0 0.00 0.00 0.00 67 1012.3
20260506040155 42 331 0.0 0.0 0.00 0.00 0.00 67 1012.3
20260506035655 42 337 4.0 4.0 0.00 0.00 0.00 67 1012.3